| time (UTC) | temp C | wind direction | speed KPH | gust KPH | rain 1hr cm | rain 24hr cm | rain mn cm | humidity % | barometer mb |
| 20260507151056 | 10 | 264 | 9.7 | 27.4 | 0.00 | 0.89 | 0.00 | 69 | 1019.5 |
| 20260507150015 | 9 | 302 | 11.3 | 24.1 | 0.00 | 0.91 | 0.00 | 75 | 1019.4 |
| 20260507145015 | 8 | 299 | 11.3 | 25.7 | 0.00 | 0.94 | 0.00 | 77 | 1019.6 |
| 20260507144015 | 8 | 279 | 11.3 | 22.5 | 0.00 | 0.97 | 0.00 | 76 | 1019.6 |
| 20260507143015 | 7 | 272 | 11.3 | 27.4 | 0.00 | 0.99 | 0.00 | 76 | 1019.4 |
| 20260507142015 | 7 | 290 | 16.1 | 29.0 | 0.00 | 0.99 | 0.00 | 79 | 1019.5 |
| 20260507141015 | 6 | 355 | 11.3 | 25.7 | 0.00 | 1.02 | 0.00 | 82 | 1019.5 |
| 20260507140015 | 6 | 268 | 9.7 | 17.7 | 0.00 | 1.02 | 0.00 | 84 | 1019.4 |
| 20260507135015 | 5 | 259 | 6.4 | 17.7 | 0.00 | 1.02 | 0.00 | 86 | 1019.3 |
| 20260507134055 | 4 | 262 | 9.7 | 20.9 | 0.00 | 1.02 | 0.00 | 86 | 1019.0 |
| 20260507133035 | 3 | 272 | 9.7 | 19.3 | 0.00 | 1.02 | 0.00 | 87 | 1019.2 |
| 20260507132015 | 3 | 266 | 9.7 | 17.7 | 0.00 | 1.02 | 0.00 | 88 | 1019.0 |
| 20260507131014 | 2 | 277 | 4.8 | 16.1 | 0.00 | 1.02 | 0.00 | 88 | 1018.9 |
| 20260507130014 | 2 | 269 | 6.4 | 19.3 | 0.00 | 1.02 | 0.00 | 88 | 1019.0 |
| 20260507125036 | 1 | 263 | 6.4 | 14.5 | 0.00 | 1.02 | 0.00 | 89 | 1018.6 |
| 20260507124015 | 1 | 261 | 4.8 | 14.5 | 0.00 | 1.02 | 0.00 | 90 | 1018.4 |
| 20260507123015 | 1 | 256 | 8.0 | 16.1 | 0.00 | 1.02 | 0.00 | 91 | 1018.2 |
| 20260507122035 | 0 | 256 | 4.8 | 11.3 | 0.00 | 1.02 | 0.00 | 91 | 1018.2 |
| 20260507121015 | 0 | 250 | 4.8 | 11.3 | 0.00 | 1.02 | 0.00 | 91 | 1018.4 |
| 20260507120014 | 0 | 249 | 3.2 | 9.7 | 0.00 | 1.02 | 0.00 | 92 | 1018.1 |
| 20260507115015 | 0 | 230 | 3.2 | 8.0 | 0.00 | 1.02 | 0.00 | 91 | 1018.0 |
| 20260507114017 | 0 | 230 | 1.6 | 6.4 | 0.00 | 1.02 | 0.00 | 91 | 1018.2 |
| 20260507113035 | 0 | 236 | 3.2 | 8.0 | 0.00 | 1.02 | 0.00 | 91 | 1018.2 |
| 20260507112016 | 0 | 243 | 3.2 | 6.4 | 0.00 | 1.02 | 0.00 | 91 | 1018.3 |
| 20260507111016 | 0 | 242 | 1.6 | 4.8 | 0.00 | 1.02 | 0.00 | 90 | 1018.4 |
| 20260507110015 | 0 | 242 | 1.6 | 6.4 | 0.00 | 1.02 | 0.00 | 91 | 1018.3 |
| 20260507105014 | 0 | 254 | 3.2 | 8.0 | 0.00 | 1.02 | 0.00 | 90 | 1018.4 |
| 20260507104016 | 0 | 277 | 3.2 | 6.4 | 0.00 | 1.02 | 0.00 | 90 | 1018.5 |
| 20260507103017 | 0 | 253 | 3.2 | 9.7 | 0.00 | 1.02 | 0.00 | 91 | 1018.8 |
| 20260507102015 | 0 | 247 | 6.4 | 12.9 | 0.00 | 1.02 | 0.00 | 91 | 1018.7 |
| 20260507101117 | 0 | 254 | 4.8 | 14.5 | 0.00 | 1.02 | 0.00 | 92 | 1018.5 |
| 20260507100016 | 0 | 247 | 6.4 | 16.1 | 0.00 | 1.02 | 0.00 | 91 | 1018.6 |
| 20260507095016 | 0 | 0.0 | 3.2 | 0.00 | 1.02 | 0.00 | 91 | 1018.6 | |
| 20260507094036 | 0 | 261 | 1.6 | 6.4 | 0.00 | 1.02 | 0.00 | 91 | 1018.5 |
| 20260507093016 | 0 | 0.0 | 3.2 | 0.00 | 1.02 | 0.00 | 91 | 1018.5 | |
| 20260507092017 | 0 | 261 | 0.0 | 3.2 | 0.00 | 1.02 | 0.00 | 91 | 1018.7 |
| 20260507091015 | 0 | 261 | 1.6 | 4.8 | 0.00 | 1.02 | 0.00 | 91 | 1018.7 |
| 20260507090016 | 0 | 264 | 3.2 | 9.7 | 0.00 | 1.02 | 0.00 | 91 | 1018.7 |
| 20260507085016 | 0 | 251 | 3.2 | 6.4 | 0.00 | 1.02 | 0.00 | 91 | 1018.8 |
| 20260507084016 | 0 | 270 | 3.2 | 6.4 | 0.00 | 1.04 | 0.00 | 91 | 1018.9 |
| 20260507083016 | 0 | 253 | 3.2 | 4.8 | 0.00 | 1.04 | 0.00 | 91 | 1018.9 |
| 20260507082016 | 0 | 257 | 3.2 | 6.4 | 0.00 | 1.07 | 0.00 | 91 | 1019.2 |
| 20260507081016 | 0 | 263 | 3.2 | 6.4 | 0.00 | 1.09 | 0.00 | 90 | 1019.3 |
| 20260507080016 | 0 | 275 | 3.2 | 4.8 | 0.00 | 1.12 | 0.00 | 90 | 1019.4 |
| 20260507075016 | 1 | 0.0 | 3.2 | 0.00 | 1.19 | 0.00 | 90 | 1019.7 | |
| 20260507074016 | 1 | 285 | 1.6 | 4.8 | 0.00 | 1.22 | 0.00 | 90 | 1019.5 |
| 20260507073016 | 1 | 258 | 3.2 | 9.7 | 0.00 | 1.22 | 0.00 | 91 | 1019.8 |
| 20260507072036 | 1 | 265 | 3.2 | 6.4 | 0.00 | 1.24 | 0.00 | 91 | 1019.8 |
| 20260507071016 | 1 | 307 | 1.6 | 4.8 | 0.00 | 1.24 | 0.00 | 91 | 1019.6 |
| 20260507070016 | 1 | 293 | 3.2 | 6.4 | 0.00 | 1.24 | 0.00 | 91 | 1019.6 |
| 20260507065016 | 1 | 242 | 0.0 | 4.8 | 0.00 | 1.24 | 0.00 | 90 | 1019.7 |
| 20260507064016 | 1 | 240 | 0.0 | 3.2 | 0.00 | 1.27 | 0.00 | 90 | 1019.8 |
| 20260507063016 | 2 | 240 | 0.0 | 3.2 | 0.00 | 1.27 | 0.00 | 90 | 1019.9 |
| 20260507062015 | 2 | 240 | 0.0 | 3.2 | 0.00 | 1.27 | 0.00 | 91 | 1020.1 |
| 20260507061016 | 2 | 237 | 1.6 | 6.4 | 0.00 | 1.27 | 0.00 | 91 | 1020.2 |
| 20260507060016 | 2 | 220 | 1.6 | 8.0 | 0.00 | 1.27 | 1.27 | 91 | 1020.2 |
| 20260507055015 | 2 | 225 | 4.8 | 9.7 | 0.00 | 1.27 | 1.27 | 92 | 1020.2 |
| 20260507054015 | 1 | 235 | 3.2 | 9.7 | 0.00 | 1.27 | 1.27 | 92 | 1019.9 |
| 20260507053015 | 1 | 0.0 | 0.0 | 0.00 | 1.27 | 1.27 | 91 | 1020.0 | |
| 20260507052015 | 1 | 0.0 | 0.0 | 0.00 | 1.30 | 1.27 | 91 | 1020.1 | |
| 20260507051015 | 1 | 0.0 | 0.0 | 0.00 | 1.30 | 1.27 | 91 | 1020.1 | |
| 20260507050015 | 1 | 0.0 | 0.0 | 0.00 | 1.30 | 1.27 | 90 | 1020.2 | |
| 20260507045035 | 1 | 0.0 | 0.0 | 0.00 | 1.30 | 1.27 | 90 | 1020.3 | |
| 20260507044035 | 1 | 0.0 | 0.0 | 0.00 | 1.30 | 1.27 | 90 | 1020.4 | |
| 20260507043016 | 1 | 0.0 | 0.0 | 0.00 | 1.30 | 1.27 | 90 | 1020.4 | |
| 20260507042037 | 1 | 0.0 | 0.0 | 0.00 | 1.30 | 1.27 | 90 | 1020.1 | |
| 20260507041017 | 1 | 0.0 | 0.0 | 0.00 | 1.30 | 1.27 | 90 | 1020.4 | |
| 20260507040017 | 1 | 0.0 | 0.0 | 0.00 | 1.30 | 1.27 | 90 | 1020.3 | |
| 20260507035015 | 2 | 0.0 | 0.0 | 0.00 | 1.30 | 1.27 | 89 | 1020.4 | |
| 20260507034015 | 2 | 0.0 | 0.0 | 0.00 | 1.32 | 1.27 | 89 | 1020.3 | |
| 20260507033015 | 2 | 0.0 | 0.0 | 0.00 | 1.35 | 1.27 | 89 | 1020.3 | |
| 20260507032038 | 2 | 0.0 | 0.0 | 0.00 | 1.35 | 1.27 | 89 | 1020.4 | |
| 20260507031016 | 2 | 0.0 | 0.0 | 0.00 | 1.37 | 1.27 | 89 | 1020.3 | |
| 20260507030037 | 3 | 0.0 | 0.0 | 0.00 | 1.40 | 1.27 | 89 | 1020.3 | |
| 20260507025016 | 3 | 0.0 | 0.0 | 0.00 | 1.42 | 1.27 | 89 | 1020.4 | |
| 20260507024016 | 3 | 0.0 | 0.0 | 0.00 | 1.42 | 1.27 | 88 | 1020.4 | |
| 20260507023016 | 3 | 236 | 0.0 | 4.8 | 0.00 | 1.42 | 1.27 | 88 | 1020.3 |
| 20260507022016 | 3 | 0.0 | 3.2 | 0.00 | 1.42 | 1.27 | 88 | 1020.2 | |
| 20260507021017 | 4 | 211 | 0.0 | 4.8 | 0.00 | 1.42 | 1.27 | 88 | 1020.3 |
| 20260507020037 | 4 | 196 | 1.6 | 4.8 | 0.00 | 1.42 | 1.27 | 88 | 1020.4 |
| 20260507015016 | 4 | 0.0 | 0.0 | 0.00 | 1.42 | 1.27 | 87 | 1020.4 | |
| 20260507014016 | 5 | 0.0 | 4.8 | 0.00 | 1.42 | 1.27 | 87 | 1020.5 | |
| 20260507013016 | 5 | 198 | 1.6 | 4.8 | 0.00 | 1.42 | 1.27 | 86 | 1020.4 |
| 20260507012016 | 5 | 197 | 3.2 | 6.4 | 0.00 | 1.42 | 1.27 | 85 | 1020.5 |
| 20260507011017 | 5 | 242 | 3.2 | 9.7 | 0.00 | 1.42 | 1.27 | 84 | 1020.5 |
| 20260507010016 | 5 | 207 | 3.2 | 9.7 | 0.00 | 1.42 | 1.27 | 85 | 1020.4 |
| 20260507005016 | 5 | 210 | 3.2 | 6.4 | 0.00 | 1.42 | 1.27 | 85 | 1020.2 |
| 20260507004016 | 5 | 220 | 1.6 | 9.7 | 0.00 | 1.42 | 1.27 | 86 | 1020.2 |
| 20260507003017 | 5 | 202 | 1.6 | 6.4 | 0.00 | 1.42 | 1.27 | 86 | 1020.3 |
| 20260507002016 | 5 | 242 | 3.2 | 11.3 | 0.00 | 1.42 | 1.27 | 86 | 1020.4 |
| 20260507001016 | 5 | 261 | 3.2 | 6.4 | 0.00 | 1.42 | 1.27 | 87 | 1020.2 |
| 20260507000036 | 5 | 240 | 1.6 | 6.4 | 0.03 | 1.42 | 1.27 | 88 | 1020.4 |
| 20260506235036 | 4 | 207 | 3.2 | 6.4 | 0.03 | 1.42 | 1.27 | 88 | 1020.5 |
| 20260506234016 | 4 | 74 | 1.6 | 4.8 | 0.03 | 1.45 | 1.27 | 89 | 1020.3 |
| 20260506233016 | 4 | 5 | 0.0 | 3.2 | 0.03 | 1.45 | 1.27 | 89 | 1020.1 |
| 20260506232016 | 4 | 5 | 0.0 | 6.4 | 0.03 | 1.45 | 1.27 | 89 | 1020.2 |
| 20260506231036 | 4 | 5 | 1.6 | 6.4 | 0.03 | 1.45 | 1.27 | 90 | 1020.2 |
| 20260506230016 | 3 | 6 | 1.6 | 6.4 | 0.00 | 1.42 | 1.24 | 90 | 1019.8 |
| 20260506225016 | 4 | 319 | 3.2 | 4.8 | 0.00 | 1.42 | 1.24 | 91 | 1020.0 |
| 20260506224016 | 3 | 0.0 | 3.2 | 0.03 | 1.42 | 1.24 | 91 | 1019.8 | |
| 20260506223016 | 3 | 351 | 3.2 | 8.0 | 0.05 | 1.42 | 1.24 | 92 | 1020.1 |
| 20260506222016 | 3 | 25 | 1.6 | 4.8 | 0.05 | 1.42 | 1.24 | 92 | 1019.9 |
| 20260506221056 | 3 | 24 | 1.6 | 6.4 | 0.05 | 1.42 | 1.24 | 92 | 1019.7 |
| 20260506220016 | 3 | 325 | 1.6 | 6.4 | 0.05 | 1.42 | 1.24 | 92 | 1019.8 |
| 20260506215015 | 3 | 325 | 0.0 | 1.6 | 0.05 | 1.42 | 1.24 | 92 | 1019.9 |
| 20260506214015 | 3 | 325 | 0.0 | 3.2 | 0.03 | 1.40 | 1.22 | 92 | 1020.0 |
| 20260506213036 | 2 | 324 | 1.6 | 4.8 | 0.00 | 1.37 | 1.19 | 93 | 1020.2 |
| 20260506212015 | 2 | 318 | 3.2 | 6.4 | 0.00 | 1.37 | 1.19 | 93 | 1020.2 |
| 20260506211056 | 2 | 51 | 0.0 | 3.2 | 0.00 | 1.37 | 1.19 | 93 | 1020.1 |
| 20260506210015 | 2 | 51 | 1.6 | 4.8 | 0.03 | 1.37 | 1.19 | 93 | 1020.0 |
| 20260506205016 | 2 | 51 | 3.2 | 6.4 | 0.03 | 1.37 | 1.19 | 93 | 1020.0 |
| 20260506204016 | 2 | 98 | 0.0 | 6.4 | 0.05 | 1.37 | 1.19 | 93 | 1019.9 |
| 20260506203016 | 2 | 110 | 3.2 | 6.4 | 0.05 | 1.37 | 1.19 | 93 | 1020.0 |
| 20260506202036 | 2 | 124 | 3.2 | 6.4 | 0.08 | 1.37 | 1.19 | 93 | 1019.8 |
| 20260506201015 | 2 | 51 | 3.2 | 6.4 | 0.10 | 1.37 | 1.19 | 93 | 1020.1 |
| 20260506200016 | 2 | 61 | 4.8 | 8.0 | 0.10 | 1.35 | 1.17 | 93 | 1020.0 |
| 20260506195015 | 2 | 80 | 3.2 | 11.3 | 0.13 | 1.35 | 1.17 | 93 | 1019.8 |
| 20260506194015 | 1 | 80 | 4.8 | 11.3 | 0.13 | 1.32 | 1.14 | 93 | 1019.9 |
| 20260506193015 | 1 | 100 | 4.8 | 11.3 | 0.15 | 1.32 | 1.14 | 93 | 1020.0 |
| 20260506192015 | 1 | 56 | 3.2 | 9.7 | 0.15 | 1.30 | 1.12 | 93 | 1019.8 |
| 20260506191015 | 1 | 65 | 4.8 | 12.9 | 0.15 | 1.27 | 1.09 | 93 | 1019.8 |
| 20260506190015 | 1 | 82 | 4.8 | 11.3 | 0.15 | 1.24 | 1.07 | 93 | 1019.4 |
| 20260506185016 | 1 | 72 | 4.8 | 11.3 | 0.15 | 1.22 | 1.04 | 93 | 1019.3 |
| 20260506184015 | 1 | 78 | 4.8 | 11.3 | 0.18 | 1.19 | 1.02 | 93 | 1019.5 |
| 20260506183015 | 1 | 72 | 4.8 | 14.5 | 0.18 | 1.17 | 0.99 | 93 | 1019.6 |
| 20260506182015 | 1 | 91 | 6.4 | 12.9 | 0.18 | 1.14 | 0.97 | 93 | 1019.9 |
| 20260506181035 | 1 | 87 | 4.8 | 11.3 | 0.18 | 1.12 | 0.94 | 93 | 1019.8 |
| 20260506180015 | 1 | 87 | 6.4 | 12.9 | 0.20 | 1.09 | 0.91 | 93 | 1019.9 |
| 20260506175015 | 1 | 82 | 4.8 | 9.7 | 0.20 | 1.07 | 0.89 | 93 | 1019.9 |
| 20260506174036 | 1 | 58 | 3.2 | 8.0 | 0.20 | 1.02 | 0.84 | 93 | 1019.9 |
| 20260506173015 | 1 | 88 | 3.2 | 9.7 | 0.20 | 0.99 | 0.81 | 93 | 1019.7 |
| 20260506172015 | 1 | 88 | 3.2 | 8.0 | 0.20 | 0.97 | 0.79 | 93 | 1019.7 |
| 20260506171015 | 1 | 75 | 4.8 | 9.7 | 0.23 | 0.94 | 0.76 | 93 | 1019.3 |
| 20260506170035 | 1 | 83 | 4.8 | 11.3 | 0.20 | 0.89 | 0.71 | 93 | 1019.2 |
| 20260506165016 | 1 | 72 | 4.8 | 12.9 | 0.20 | 0.86 | 0.69 | 93 | 1019.1 |
| 20260506164015 | 1 | 64 | 4.8 | 9.7 | 0.18 | 0.81 | 0.64 | 93 | 1019.0 |
| 20260506163036 | 1 | 75 | 4.8 | 11.3 | 0.18 | 0.79 | 0.61 | 93 | 1018.9 |
| 20260506162015 | 0 | 89 | 4.8 | 11.3 | 0.18 | 0.76 | 0.58 | 93 | 1018.6 |
| 20260506161015 | 0 | 72 | 3.2 | 9.7 | 0.15 | 0.71 | 0.53 | 93 | 1018.8 |
| 20260506160035 | 0 | 55 | 4.8 | 11.3 | 0.15 | 0.69 | 0.51 | 93 | 1018.7 |
| 20260506155015 | 0 | 82 | 4.8 | 9.7 | 0.15 | 0.66 | 0.48 | 93 | 1018.5 |
| 20260506154015 | 0 | 72 | 4.8 | 12.9 | 0.15 | 0.64 | 0.46 | 93 | 1018.4 |
| 20260506153015 | 0 | 62 | 6.4 | 14.5 | 0.15 | 0.61 | 0.43 | 93 | 1018.1 |
| 20260506152016 | 0 | 82 | 3.2 | 12.9 | 0.13 | 0.58 | 0.41 | 93 | 1017.9 |